Location: Newark
(45.8667°N, 9.7333°E)
Time: 17:48:14
(UTC+00:00)

Vanguard 3 - Pass Details

Date: 01 February 2020
Orbit: 508 x 3263 km, 33.3° (Epoch: 21 February)

Event Time Altitude Azimuth Distance (km) Brightness Sun altitude
Rises 11:38:15 0° 178° (S) 5,573 12.7 27.0°
Reaches altitude 10° 11:44:13 10° 157° (SSE) 5,121 12.5 26.9°
Maximum altitude 11:51:34 15° 128° (SE) 5,225 11.9 26.8°
Drops below altitude 10° 11:59:59 10° 101° (E) 6,048 11.7 26.7°
Sets 12:08:15 0° 83° (E) 7,232 11.8 26.5°
